COSMOS 2251 DEB, 40796

Orbit data source: Space-Track

COSMOS 2251 DEB, 40796 is space debris in LEO originally from a launch on Wed, 16 Jun 1993 UTC launched from the Plesetsk Missile And Space Complex (PKMTR). The debris from Iridium 33, an American commercial communications satellite, has been tracked extensively since its accidental collision with the defunct Russian satellite Cosmos 2251 in 2009. This event, occurring at high speed in low Earth orbit (LEO), generated thousands of pieces of space debris, significantly increasing the risk of further collisions. The Iridium 33 debris cloud has impacted space traffic management and orbital debris mitigation strategies, making it a subject of ongoing study in space situational awareness.

Loading next visibility...
Identifier
40796, 1993-036BVZ
Orbit
LEO
Country
Flag of CISCIS
Related business
Manufacturer
Unknown
Mission
Spacecraft
Bus & Motor
Unknown
Mass
Unknown
Launch date (UTC)
1993-06-16 (33 years ago)
Launch vehicle
Unknown
Launch site
Plesetsk Missile And Space Complex (PKMTR)
Object type
Payload
Rocket body
Debris
Shape & HBR
Unknown shape, 0.1 m
Radar Cross Section
Small (<0.1 m²)

Expand to show TLE details & history
Last TLE update: 22 hours ago

TLE from 22 hours ago
0 COSMOS 2251 DEB
1 40796U 93036BVZ 26256.93956029  .00003061  00000-0  35625-3 0  9995
2 40796  74.0120 316.2829 0052678  20.7033 151.9545 14.84766288802392
Epoch: 2026-09-13T22:32Z
TLE epoch observation values (Epoch: 2026-09-13T22:32:58.009Z)
Latitude
6.7149°
Longitude
163.19147°
Altitude
648.924 km
Speed
7.516 km/s
True Right ascension
08h 57m 26s
True Declination
6° 40' 28"
Sunlit
Object was in daylight at epoch
Visualization orbit readout
Latitude
Unknown
Longitude
Unknown
Altitude
Unknown
Speed
Unknown
Apparent Right ascension
Unknown
Apparent Declination
Unknown
Sunlit
N/A
Visualization observer readout
Local Sidereal Time
13:25:51
Azimuth
Unknown
Elevation
Unknown
Doppler factor
Unknown
Orbital elements
Apogee altitude
648.714 km
Perigee altitude
575.07 km
Semi-major axis
6,990.029 km
Eccentricity
0.00527
Inclination
74.012°
RAAN
316.2829°
Arg. of periapsis
20.7033°
True anomaly
152.23668°
Mean anomaly
151.9545°
Eccentric anomaly
152.09575°
Mean motion
3.71385 °/min
Orbital period
96.93 mins
BSTAR
0.00035625
Loading maneuver chart data...
Computing Atmospheric mass density...

Documentation

Showing up to 5 results
|